Regional Weather Roundup
Issued by NWS

Home | Current Version | Previous Version | Graphics & Text | Print | Product List | Glossary On
Versions: 1 2 3 4 5 6 7 8 9 10 11 12 13 14 15 16 17 18 19 20 21 22 23 24 25 26 27 28 29 30 31 32 33 34 35 36 37 38 39 40 41 42 43 44 45 46 47 48 49 50
000
ASUS43 KLSX 030910
RWRMO

WEATHER SUMMARY FOR MISSOURI
NATIONAL WEATHER SERVICE SPRINGFIELD MO
400 AM CDT TUE MAY 03 2016

NOTE: "FAIR" INDICATES FEW OR NO CLOUDS BELOW 12,000 FEET WITH NO
       SIGNIFICANT WEATHER AND/OR OBSTRUCTIONS TO VISIBILITY.
       CURRENT SKY AND/OR WEATHER CONDITIONS ARE NOT AVAILABLE FOR
       CHILLICOTHE AND FARMINGTON.

MOZ001>031-035>038-043-044-053-054-031000-
...NORTHERN AND WESTERN MISSOURI...

CITY           SKY/WX    TMP DP  RH WIND       PRES   REMARKS
KANSAS CTY INT PTCLDY    45  42  89 W6        30.06S
KANSAS C DTWN  PTCLDY    46  44  93 CALM      30.06S
LEE`S SUMMIT   CLEAR     44  42  93 W6        30.06S
ST JOSEPH      FOG       42  41  96 CALM      30.07S VSB 1/4
CHILLICOTHE      N/A     41  39  93 CALM      30.07R
KIRKSVILLE     CLEAR     40  38  93 NW5       30.05S

$$
MOZ066>068-077>081-088>096-101>105-031000-
...SOUTHWEST MISSOURI...

CITY           SKY/WX    TMP DP  RH WIND       PRES   REMARKS
SPRINGFIELD    CLOUDY    47  44  90 CALM      30.05S
JOPLIN         PTCLDY    40  40 100 CALM      30.08R FOG

$$
MOZ032>034-039>042-045>050-055>058-069>072-031000-
...CENTRAL MISSOURI...

CITY           SKY/WX    TMP DP  RH WIND       PRES   REMARKS
COLUMBIA       FOG       42  42 100 CALM      30.04S VSB 1/4
JEFFERSON CITY FOG       47  46  97 NW5       30.05S VSB 1/4
ROLLA          CLOUDY    48  47  96 NW5       30.02S
SEDALIA        CLEAR     45  44  97 W5        30.06S
WHITEMAN AFB   CLEAR     43  43 100 CALM      30.05  FOG
WARRENSBURG    FOG       41  41 100 CALM      30.05S VSB 1/4
OSAGE BEACH    CLOUDY    45  36  70 CALM      30.05S VSB 1/4

$$
MOZ051-052-059>065-031000-
...EAST CENTRAL MISSOURI...

CITY           SKY/WX    TMP DP  RH WIND       PRES   REMARKS
ST LOUIS INTL  CLOUDY    53  49  86 W5        30.01S
SPIRIT OF STL  CLOUDY    52  50  93 CALM      30.01S
ST CHARLES     CLOUDY    52  50  93 NW6       30.00F

$$
MOZ072>076-082>087-097>100-106>115-031000-
...SOUTH CENTRAL AND SOUTHEAST MISSOURI...

CITY           SKY/WX    TMP DP  RH WIND       PRES   REMARKS
CAPE GIRARDEAU CLOUDY    54  49  83 NW7       29.99S
FARMINGTON     CLOUDY    51  48  89 NW7       30.01S
POPLAR BLUFF   PTCLDY    54  48  80 N3        30.00S
WEST PLAINS    CLOUDY    50  45  83 NW6       30.03S

$$




USA.gov is the U.S. government's official web portal to all federal, state and local government web resources and services.